Find Starlink 30830

NORAD ID: 58194 Int'l Des: 2023-167 Owner: SPXS Country: US Constellation: starlink operational
LEOCIRCULAR

Live Position

Loading 3D Globe...

About Starlink 30830

Description loading...

Upcoming Passes

Passes for default location (London). Set your location on the main map for personalized predictions.

Altitude History

Loading altitude history...

Two-Line Element Set

1 58194U 23167V 26124.55987549 .00000620 00000-0 32064-4 0 9990
2 58194 43.0031 187.5138 0001115 272.5315 87.5409 15.27577380139535
Epoch: May 4, 2026 • Age: 16 hours

Current Status

Altitude 483.3 km
Velocity 7.63 km/s
Sub-Earth Point -2.72°S, 54.45°E
Launch Date Oct 30, 2023
Age 2.5 years
Type internet

Technical Details

Classification Payload
Mass 730.00 kg
Dry Mass 700.00 kg
Total Mass 730.00 kg
Length 0.30 m
Diameter 4.10 m
Span 29.00 m
Shape Box + pan
Manufacturer SPXS
Bus Type Starlink V2M
Phase Status In Orbit
Owner/State SPXS/US

Most Searched